This is the latest recevied weather packets stored in our database for station/object N7MLR. If no packets are shown the sender has not sent any weather packets the latest 10 day(s).
| Time | Temp. | Humidity | Pressure | Rain* | Wind** | Luminosity | Snow |
|---|---|---|---|---|---|---|---|
| 1777636136 | 15° C | 99% | 1010.7 hPa | 4.83 mm | - | 0 W/m² | - |
| 1777635832 | 15° C | 99% | 1012.1 hPa | 3.05 mm | - | 0 W/m² | - |
| 1777635529 | 15° C | 99% | 1011.5 hPa | 1.78 mm | - | 0 W/m² | - |
| 1777635225 | 15° C | 99% | 1012.3 hPa | 1.78 mm | - | 0 W/m² | - |
| 1777634922 | 15° C | 99% | 1012.2 hPa | 0 mm | - | 0 W/m² | - |
| 1777634619 | 15° C | 99% | 1011.9 hPa | 3.05 mm | - | 0 W/m² | - |
| 1777634316 | 15° C | 99% | 1011.4 hPa | 6.1 mm | - | 0 W/m² | - |
| 1777634012 | 15° C | 99% | 1008.8 hPa | 4.32 mm | - | 0 W/m² | - |
| 1777633709 | 15° C | 99% | 1010 hPa | 3.05 mm | - | 0 W/m² | - |
| 1777633408 | 15° C | 99% | 1011.5 hPa | 3.05 mm | - | 0 W/m² | - |
| 1777633105 | 15° C | 99% | 1011.1 hPa | 3.05 mm | - | 0 W/m² | - |
| 1777632801 | 15.56° C | 99% | 1011.5 hPa | 3.05 mm | - | 0 W/m² | - |
| 1777632497 | 15.56° C | 99% | 1012.1 hPa | 4.32 mm | - | 0 W/m² | - |
| 1777632194 | 15.56° C | 99% | 1012.6 hPa | 4.83 mm | - | 0 W/m² | - |
| 1777631891 | 15.56° C | 99% | 1013.3 hPa | 3.56 mm | - | 0 W/m² | - |
| 1777631590 | 15.56° C | 99% | 1013 hPa | 3.05 mm | - | 0 W/m² | - |
| 1777631287 | 15.56° C | 99% | 1012.4 hPa | 1.27 mm | - | 0 W/m² | - |
| 1777630984 | 15.56° C | 99% | 1011.4 hPa | 0 mm | - | 0 W/m² | - |
| 1777630679 | 15.56° C | 99% | 1010.8 hPa | 0 mm | - | 0 W/m² | - |
| 1777630377 | 15.56° C | 99% | 1011.5 hPa | 0 mm | - | 0 W/m² | - |
| 1777630074 | 15.56° C | 99% | 1011.6 hPa | 0 mm | - | 0 W/m² | - |
| 1777629771 | 15.56° C | 99% | 1010.9 hPa | 1.78 mm | - | 0 W/m² | - |
| 1777629468 | 15.56° C | 99% | 1010.9 hPa | 1.78 mm | - | 0 W/m² | - |
| 1777629164 | 15.56° C | 99% | 1011.4 hPa | 1.27 mm | - | 0 W/m² | - |
| 1777628861 | 15.56° C | 99% | 1011.3 hPa | 4.32 mm | - | 0 W/m² | - |
* Rain latest hour (hover to see other rain measurements)
** Current wind speed in m/s (hover to see current wind gust speed)